• In Hungary
  • List of Countries
  • For 7 days
  • Water Temperature
  • Satellite Maps
  • Weather Map
  • News
  • Weather Widgets
  • user-avatar
    Login

    Hourly Weather Varnsdorf

    Today, 13 December, Wednesday

    Time Temperature Precipitation Wind Pressure Humidity
    00:00 -1°C° 0 mm 3 mps 729 mmHg 84%
    01:00 -2°C° 0 mm 2 mps 729 mmHg 89%
    02:00 -2°C° 0 mm 2 mps 730 mmHg 88%
    03:00 -2°C° 0 mm 2 mps 730 mmHg 88%
    04:00 -2°C° 0 mm 3 mps 730 mmHg 87%
    05:00 -2°C° 0 mm 3 mps 730 mmHg 87%
    06:00 -4°C° 0 mm 3 mps 730 mmHg 88%
    07:00 -4°C° 0 mm 3 mps 730 mmHg 88%
    08:00 -2°C° 0 mm 3 mps 730 mmHg 85%
    09:00 -2°C° 0 mm 3 mps 730 mmHg 81%
    10:00 -2°C° 0 mm 4 mps 730 mmHg 78%
    11:00 -1°C° 0 mm 4 mps 729 mmHg 75%
    12:00 -1°C° 0 mm 5 mps 728 mmHg 72%
    13:00 0°C° 0 mm 5 mps 728 mmHg 69%
    14:00 0°C° 0 mm 5 mps 727 mmHg 69%
    15:00 -1°C° 0 mm 5 mps 726 mmHg 70%
    16:00 -1°C° 0 mm 5 mps 725 mmHg 71%
    17:00 -2°C° 0 mm 6 mps 724 mmHg 70%
    18:00 -2°C° 0 mm 6 mps 723 mmHg 69%
    19:00 -3°C° 0 mm 7 mps 722 mmHg 68%
    20:00 -2°C° 0.1 mm 7 mps 721 mmHg 65%
    21:00 -2°C° 0.1 mm 7 mps 720 mmHg 63%
    22:00 -2°C° 0.1 mm 7 mps 719 mmHg 60%
    23:00 -1°C° 0 mm 7 mps 718 mmHg 63%

    Tomorrow, 14 December, Thursday

    Time Temperature Precipitation Wind Pressure Humidity
    00:00 -1°C° 0 mm 7 mps 717 mmHg 66%
    01:00 -1°C° 0 mm 7 mps 716 mmHg 69%
    02:00 -1°C° 0.2 mm 7 mps 715 mmHg 70%
    03:00 0°C° 0.2 mm 8 mps 714 mmHg 71%
    04:00 0°C° 0.2 mm 8 mps 713 mmHg 73%
    05:00 0°C° 0.5 mm 7 mps 713 mmHg 75%
    06:00 +1°C° 0.5 mm 6 mps 714 mmHg 77%
    07:00 +1°C° 0.5 mm 5 mps 714 mmHg 80%
    08:00 0°C° 0.2 mm 7 mps 714 mmHg 76%
    09:00 0°C° 0.2 mm 8 mps 714 mmHg 71%
    10:00 0°C° 0.2 mm 9 mps 714 mmHg 67%
    11:00 0°C° 0.3 mm 10 mps 715 mmHg 65%
    12:00 -2°C° 0.3 mm 10 mps 716 mmHg 64%
    13:00 -2°C° 0.3 mm 11 mps 717 mmHg 62%
    14:00 -1°C° 0 mm 9 mps 717 mmHg 64%
    15:00 -2°C° 0 mm 7 mps 718 mmHg 66%
    16:00 -1°C° 0 mm 5 mps 718 mmHg 68%
    17:00 -1°C° 0 mm 5 mps 718 mmHg 71%
    18:00 -2°C° 0 mm 5 mps 718 mmHg 74%
    19:00 -2°C° 0 mm 5 mps 717 mmHg 76%
    20:00 -2°C° 0 mm 5 mps 717 mmHg 76%
    21:00 -1°C° 0 mm 5 mps 716 mmHg 76%
    22:00 -1°C° 0 mm 5 mps 715 mmHg 76%
    23:00 -1°C° 0.1 mm 5 mps 715 mmHg 77%

    Day after tomorrow, 15 December, Friday

    Time Temperature Precipitation Wind Pressure Humidity
    00:00 -1°C° 0.1 mm 4 mps 715 mmHg 79%
    01:00 -1°C° 0.1 mm 4 mps 714 mmHg 81%
    02:00 -1°C° 0.4 mm 4 mps 714 mmHg 82%
    03:00 -1°C° 0.4 mm 4 mps 713 mmHg 84%
    04:00 -1°C° 0.4 mm 4 mps 713 mmHg 85%
    05:00 0°C° 0.9 mm 5 mps 713 mmHg 86%
    06:00 0°C° 0.9 mm 5 mps 714 mmHg 86%
    07:00 -1°C° 0.9 mm 6 mps 714 mmHg 87%
    08:00 0°C° 0.4 mm 5 mps 715 mmHg 86%
    09:00 -1°C° 0.4 mm 5 mps 716 mmHg 85%
    10:00 -1°C° 0.4 mm 5 mps 717 mmHg 85%
    11:00 0°C° 0 mm 4 mps 717 mmHg 82%
    12:00 0°C° 0 mm 4 mps 717 mmHg 79%
    13:00 0°C° 0 mm 4 mps 718 mmHg 77%
    14:00 0°C° 0 mm 3 mps 718 mmHg 79%
    15:00 -1°C° 0 mm 3 mps 718 mmHg 81%
    16:00 -2°C° 0 mm 2 mps 718 mmHg 82%
    17:00 -2°C° 0 mm 2 mps 718 mmHg 83%
    18:00 -2°C° 0 mm 3 mps 718 mmHg 83%
    19:00 -2°C° 0 mm 3 mps 719 mmHg 84%
    20:00 -2°C° 0 mm 3 mps 719 mmHg 85%
    21:00 -2°C° 0 mm 3 mps 719 mmHg 86%
    22:00 -2°C° 0 mm 3 mps 719 mmHg 87%
    23:00 -2°C° 0 mm 3 mps 719 mmHg 88%

    16 December, Saturday

    Time Temperature Precipitation Wind Pressure Humidity
    00:00 -2°C° 0 mm 3 mps 719 mmHg 88%
    01:00 -2°C° 0 mm 3 mps 718 mmHg 89%
    02:00 -2°C° 0 mm 2 mps 718 mmHg 90%
    03:00 -2°C° 0 mm 2 mps 718 mmHg 90%
    04:00 -2°C° 0 mm 2 mps 718 mmHg 91%
    05:00 -2°C° 0 mm 2 mps 718 mmHg 91%
    06:00 -2°C° 0 mm 2 mps 719 mmHg 91%
    07:00 -2°C° 0 mm 2 mps 719 mmHg 91%
    08:00 -1°C° 0 mm 2 mps 719 mmHg 90%
    09:00 -1°C° 0 mm 3 mps 720 mmHg 89%
    10:00 0°C° 0 mm 3 mps 721 mmHg 88%
    11:00 0°C° 0.1 mm 3 mps 721 mmHg 87%
    12:00 0°C° 0.1 mm 3 mps 721 mmHg 86%
    13:00 -1°C° 0.1 mm 4 mps 722 mmHg 85%
    14:00 0°C° 0.1 mm 3 mps 722 mmHg 85%
    15:00 0°C° 0.1 mm 3 mps 722 mmHg 86%
    16:00 -1°C° 0.1 mm 3 mps 723 mmHg 86%
    17:00 -2°C° 0.3 mm 4 mps 723 mmHg 86%
    18:00 -2°C° 0.3 mm 4 mps 724 mmHg 86%
    19:00 -2°C° 0.3 mm 5 mps 724 mmHg 86%
    20:00 -2°C° 0.2 mm 5 mps 725 mmHg 87%
    21:00 -2°C° 0.2 mm 4 mps 725 mmHg 87%
    22:00 -2°C° 0.2 mm 4 mps 726 mmHg 88%
    23:00 -2°C° 0.2 mm 4 mps 726 mmHg 89%

    17 December, Sunday

    Time Temperature Precipitation Wind Pressure Humidity
    00:00 -2°C° 0.2 mm 4 mps 727 mmHg 89%
    01:00 -2°C° 0.2 mm 5 mps 727 mmHg 90%
    02:00 -2°C° 0.2 mm 4 mps 728 mmHg 90%
    03:00 -2°C° 0.2 mm 4 mps 728 mmHg 90%
    04:00 -3°C° 0.2 mm 4 mps 729 mmHg 91%
    05:00 -3°C° 0.1 mm 4 mps 729 mmHg 91%
    06:00 -3°C° 0.1 mm 4 mps 730 mmHg 91%
    07:00 -2°C° 0.1 mm 3 mps 731 mmHg 92%
    08:00 -2°C° 0 mm 3 mps 731 mmHg 91%
    09:00 -2°C° 0 mm 3 mps 732 mmHg 90%
    10:00 -2°C° 0 mm 3 mps 733 mmHg 89%
    11:00 -3°C° 0 mm 4 mps 733 mmHg 88%
    12:00 -2°C° 0 mm 4 mps 733 mmHg 87%
    13:00 -2°C° 0 mm 4 mps 734 mmHg 85%
    14:00 -1°C° 0 mm 3 mps 734 mmHg 87%
    15:00 -2°C° 0 mm 3 mps 734 mmHg 89%
    16:00 -2°C° 0 mm 2 mps 735 mmHg 91%
    17:00 -2°C° 0.1 mm 2 mps 735 mmHg 92%
    18:00 -2°C° 0.1 mm 2 mps 736 mmHg 93%
    19:00 -2°C° 0.1 mm 2 mps 736 mmHg 93%
    20:00 -2°C° 0.1 mm 2 mps 736 mmHg 93%
    21:00 -2°C° 0.1 mm 2 mps 736 mmHg 94%
    22:00 -2°C° 0.1 mm 2 mps 737 mmHg 94%
    23:00 -2°C° 0 mm 2 mps 737 mmHg 94%

    18 December, Monday

    Time Temperature Precipitation Wind Pressure Humidity
    00:00 -2°C° 0 mm 2 mps 737 mmHg 94%
    01:00 -2°C° 0 mm 2 mps 737 mmHg 94%
    02:00 -2°C° 0.1 mm 2 mps 737 mmHg 94%
    03:00 -2°C° 0.1 mm 2 mps 737 mmHg 94%
    04:00 -2°C° 0.1 mm 2 mps 737 mmHg 93%
    05:00 -2°C° 0.1 mm 2 mps 737 mmHg 93%
    06:00 -2°C° 0.1 mm 2 mps 736 mmHg 92%
    07:00 -2°C° 0.1 mm 2 mps 736 mmHg 92%
    08:00 -2°C° 0 mm 2 mps 736 mmHg 90%
    09:00 -2°C° 0 mm 2 mps 736 mmHg 89%
    10:00 -2°C° 0 mm 3 mps 736 mmHg 87%
    11:00 -1°C° 0 mm 3 mps 735 mmHg 86%
    12:00 -1°C° 0 mm 3 mps 735 mmHg 85%
    13:00 -1°C° 0 mm 3 mps 734 mmHg 84%
    14:00 -1°C° 0 mm 3 mps 734 mmHg 86%
    15:00 -2°C° 0 mm 2 mps 733 mmHg 87%
    16:00 -2°C° 0 mm 2 mps 733 mmHg 89%
    17:00 -2°C° 0 mm 2 mps 733 mmHg 90%
    18:00 -2°C° 0 mm 2 mps 733 mmHg 91%
    19:00 -2°C° 0 mm 2 mps 733 mmHg 92%
    20:00 -3°C° 0 mm 2 mps 733 mmHg 92%
    21:00 -3°C° 0 mm 2 mps 733 mmHg 92%
    22:00 -3°C° 0 mm 2 mps 734 mmHg 93%
    23:00 -3°C° 0 mm 2 mps 734 mmHg 93%
    Show more